Regional Weather Roundup
Issued by NWS

Home | Current Version | Previous Version | Text Only | Print | Product List | Glossary On
Versions: 1 2 3 4 5 6 7 8 9 10 11 12 13 14 15 16 17 18 19 20 21 22 23 24 25 26 27 28 29 30 31 32 33 34 35 36 37 38 39 40 41 42 43 44 45 46 47 48 49 50
000
ASUS43 KDMX 250208
RWRIA

WEATHER ROUNDUP FOR IOWA
NATIONAL WEATHER SERVICE DES MOINES IA
900 PM CDT SAT SEP 24 2016

NOTE: "FAIR" INDICATES FEW OR NO CLOUDS BELOW 12,000 FEET WITH NO
SIGNIFICANT WEATHER AND/OR OBSTRUCTIONS TO VISIBILITY.

* - THESE STATIONS ARE NOT NWS STATIONS...THUS NOT UNDER NWS
QUALITY CONTROL.  THEY ALSO DO NOT REPORT WEATHER SUCH
AS PRECIPITATION OR FOG.

IAZ001>003-012>014-020>022-031>034-043>046-250300-
   NORTHWEST IOWA

CITY           SKY/WX    TMP DP  RH WIND       PRES   REMARKS
CARROLL *      MOCLDY    68  68 100 S5        29.95S
CHEROKEE *     CLOUDY    68  67  97 S5        29.94R
DENISON *      CLOUDY    70  68  94 SE7       29.93R
LE MARS *      CLOUDY    72  70  94 SE8       29.92F
ORANGE CITY *  CLOUDY    70  68  94 SE5       29.93S
SHELDON *      CLOUDY    70  68  94 S8        29.93R
SIOUX CITY     CLOUDY    73  72  96 SE6       29.91S
SPENCER        LGT RAIN  68  66  93 SE8       29.96R
STORM LAKE *   CLOUDY    68  66  94 SE8       29.96R
$$

IAZ055>058-069>071-079>083-090>094-250300-
   SOUTHWEST IOWA

CITY           SKY/WX    TMP DP  RH WIND       PRES   REMARKS
ATLANTIC *     CLOUDY    70  68  94 E6        29.96R
AUDUBON *      LGT RAIN  70  66  88 S5        29.99R
CLARINDA *       N/A     70  70 100 MISG      29.99R
COUNCIL BLFS * MOCLDY    70  68  94 S7        29.96R
CRESTON *      CLOUDY    68  68 100 E10       30.00R
HARLAN  *      CLOUDY    70  70 100 SE6       29.99R
LAMONI         CLOUDY    75  69  81 SW3       29.99R
RED OAK *      LGT RAIN  70  68  94 S8        29.95S
SHENANDOAH *   LGT RAIN  68  68 100 SE8       29.95R
$$

IAZ047>049-059>061-072>074-084-250300-
   CENTRAL IOWA

CITY           SKY/WX    TMP DP  RH WIND       PRES   REMARKS
AMES           LGT RAIN  70  70 100 SW13      30.03R
ANKENY *         N/A    N/A N/A N/A MISG        N/A
BOONE *        HVY RAIN  68  68 100 SW6       30.03R VSB 3/4
CHARITON *       N/A     75  70  83 SE8       29.99R
DES MOINES     TSTM      72  66  81 NW20G29   30.02R
GRINNELL*      CLOUDY    74  65  73 E5        30.01R
KNOXVILLE *    CLOUDY    77  66  69 SE7       29.99R
MARSHALLTOWN   CLOUDY    74  70  87 E12       29.99R
NEWTON *       CLOUDY    75  66  73 SE7       29.99R
PELLA *        PTCLDY    76  66  71 SE3       30.01R
PERRY *        RAIN      67  67  98 SE12      29.99S
$$

IAZ004>006-015-016-023>025-035-036-250300-
   NORTH CENTRAL IOWA

CITY           SKY/WX    TMP DP  RH WIND       PRES   REMARKS
ALGONA *       CLOUDY    68  66  94 S9G16     29.97R
CLARION *      CLOUDY    66  66 100 SE9       29.99R
ESTHERVILLE    LGT RAIN  68  68 100 S10       29.95R
FORT DODGE *   CLOUDY    66  63  88 SE8       29.99R
MASON CITY     CLOUDY    73  68  84 SE10      30.01R
FOREST CITY *  LGT RAIN  70  64  83 SE7       29.99F
WEBSTER CITY * LGT RAIN  68  68 100 S7        29.99R
IOWA FALLS *   HVY RAIN  68  65  92 W12       30.04R
$$

IAZ007>011-017>019-026>030-037>042-050>054-066-250300-
   NORTHEAST IOWA

CITY           SKY/WX    TMP DP  RH WIND       PRES   REMARKS
CEDAR RAPIDS   CLEAR     70  69  97 E10       30.01F
CHARLES CITY * CLOUDY    68  68 100 E12       30.03S
CLINTON *      CLEAR     71  67  87 E9        30.07R
DECORAH *      MOCLDY    66  66 100 E10       30.06F
DUBUQUE        CLEAR     68  65  90 E13       30.08S
MONTICELLO *   CLEAR     68  66  94 E6        30.04S FOG
OELWEIN *      PTCLDY    68  66  94 E9        30.05S FOG
WATERLOO       PTCLDY    70  66  87 E12       30.00R
$$

IAZ064-065-067-068-078-250300-
   EAST CENTRAL IOWA

CITY           SKY/WX    TMP DP  RH WIND       PRES   REMARKS
DAVENPORT      CLEAR     72  67  84 E8        30.06R
IOWA CITY      CLEAR     74  68  81 E9        30.02F
MT. PLEASANT * CLEAR     76  67  74 CALM      30.02R
MUSCATINE *    CLEAR     75  68  78 CALM      30.02F
QUAD CITIES    CLEAR     73  67  81 E9        30.05R
$$

IAZ062-063-075>077-085>089-095>099-250300-
   SOUTHEAST IOWA

CITY           SKY/WX    TMP DP  RH WIND       PRES   REMARKS
BURLINGTON     CLEAR     76  67  73 SE8       30.02S
FAIRFIELD *    CLEAR     73  63  68 SE6       30.00S
FORT MADISON *   N/A     77  66  69 SE7       30.02F
KEOKUK *       CLEAR     77  66  69 SE6       30.01S
OSKALOOSA *      N/A     75  64  68 SE7       30.00R
CENTERVILLE *    N/A     77  66  69 SE3       30.02R
OTTUMWA        CLOUDY    75  64  68 SE7       29.99R
WASHINGTON *     N/A    N/A N/A N/A MISG        N/A
$$

ABBREVIATIONS USED IN REMARKS
   TC - TEMPERATURES IN CELSIUS
  WCI - WIND CHILL INDEX
   HX - HEAT INDEX
  VSB - VISIBILITY
$$





USA.gov is the U.S. government's official web portal to all federal, state and local government web resources and services.